Weather History for Chicopee, MA

Change the Weather History Date:

Friday, March 22, 2013

  Actual Average Record
Temperature  
Mean Temperature 28 °F -  
Max Temperature 37 °F 45 °F 82 °F (2012)
Min Temperature 20 °F 28 °F 15 °F (2002)
Degree Days  
Heating Degree Days 36    
Moisture  
Dew Point 19 °F    
Average Humidity 60    
Maximum Humidity 73    
Minimum Humidity 47    
Precipitation  
Precipitation 0.00 in - - ()
Sea Level Pressure  
Sea Level Pressure 29.72 in    
Wind  
Wind Speed 8 mph (WNW)    
Max Wind Speed 20 mph    
Max Gust Speed 28 mph    
Visibility 10 miles    
Events      
Averages and records for this station are not official NWS values.
T = Trace of Precipitation, MM = Missing Value Source: NWS Daily Summary

Daily Weather History Graph

Daily Weather History Graph

Search for Another Location

Airport:

Trip Planner

Search our weather history database for the weather conditions in past years. The results will help you decide how hot, cold, wet, or windy it might be!

Date:

Astronomy

Mar. 22, 2013 Rise Set
Actual Time 6:49 AM EDT 7:04 PM EDT
Civil Twilight 6:21 AM EDT 7:32 PM EDT
Nautical Twilight 5:48 AM EDT 8:05 PM EDT
Astronomical Twilight 5:15 AM EDT 8:39 PM EDT
Moon 2:24 PM EDT (3/22) 3:52 AM EDT (3/22)
Length of Visible Light 13h 11m
Length of Day
12h 15m
Waxing Gibbous, 77% of the Moon is Illuminated
Mar 22
Waxing Gibbous
Mar 27
Full
Apr 3
Last Quarter
Apr 10
New
Apr 18
First Quarter

Hourly Weather History & Observations

Time (EDT) Temp. Windchill Dew Point Humidity Pressure Visibility Wind Dir Wind Speed Gust Speed Precip Events Conditions
12:55 AM 28.2 °F 20.2 °F 11.3 °F 49% 29.68 in 10.0 mi NNW 8.1 mph - N/A   Overcast
1:55 AM 26.2 °F - 11.7 °F 54% 29.68 in 10.0 mi Calm Calm - N/A   Clear
2:55 AM 23.9 °F 19.5 °F 11.8 °F 60% 29.68 in 10.0 mi NW 3.5 mph - N/A   Clear
3:55 AM 22.8 °F - 11.8 °F 63% 29.66 in 10.0 mi Calm Calm - N/A   Clear
4:55 AM 22.1 °F 14.7 °F 11.3 °F 63% 29.67 in 10.0 mi WNW 5.8 mph - N/A   Clear
5:55 AM 22.6 °F 18.0 °F 11.3 °F 62% 29.68 in 10.0 mi WNW 3.5 mph - N/A   Clear
6:55 AM 20.7 °F - 10.8 °F 66% 29.69 in 10.0 mi Calm Calm - N/A   Clear
7:55 AM 21.7 °F 17.0 °F 14.4 °F 73% 29.71 in 10.0 mi West 3.5 mph - N/A   Clear
8:55 AM 27.5 °F - 14.2 °F 57% 29.72 in 10.0 mi Calm Calm - N/A   Clear
9:55 AM 30.4 °F 23.6 °F 18.3 °F 61% 29.72 in 10.0 mi WNW 6.9 mph - N/A   Partly Cloudy
10:55 AM 32.9 °F 24.7 °F 18.9 °F 56% 29.72 in 10.0 mi WNW 10.4 mph - N/A   Mostly Cloudy
11:55 AM 35.2 °F 26.6 °F 19.2 °F 52% 29.71 in 10.0 mi West 12.7 mph - N/A   Scattered Clouds
12:55 PM 35.6 °F 27.5 °F 19.0 °F 51% 29.72 in 10.0 mi West 11.5 mph - N/A   Scattered Clouds
1:55 PM 36.9 °F 30.1 °F 18.3 °F 47% 29.70 in 10.0 mi WNW 9.2 mph - N/A   Scattered Clouds
2:55 PM 36.3 °F 28.0 °F 22.3 °F 57% 29.69 in 10.0 mi West 12.7 mph - N/A   Overcast
3:55 PM 36.9 °F 29.1 °F 21.4 °F 54% 29.70 in 10.0 mi WNW 11.5 mph - N/A   Overcast
4:03 PM 37.4 °F 27.2 °F 21.2 °F 52% 29.70 in 10.0 mi West 19.6 mph - N/A   Mostly Cloudy
4:15 PM 35.6 °F 27.1 °F 21.2 °F 56% 29.70 in 10.0 mi WNW 12.7 mph 21.9 mph N/A   Mostly Cloudy
4:55 PM 36.5 °F 29.7 °F 23.2 °F 59% 29.70 in 10.0 mi WSW 9.2 mph - 0.00 in   Overcast
5:14 PM 35.6 °F 28.6 °F 23.0 °F 60% 29.71 in 10.0 mi WSW 9.2 mph - N/A   Overcast
5:24 PM 35.6 °F 27.5 °F 23.0 °F 60% 29.71 in 10.0 mi West 11.5 mph - N/A   Overcast
5:31 PM 37.4 °F 28.5 °F 23.0 °F 56% 29.71 in 10.0 mi WNW 15.0 mph - N/A   Overcast
5:40 PM 35.6 °F 26.2 °F 23.0 °F 60% 29.71 in 10.0 mi WNW 15.0 mph - N/A   Overcast
5:55 PM 36.1 °F 27.3 °F 23.4 °F 60% 29.71 in 10.0 mi West 13.8 mph - 0.00 in   Overcast
6:37 PM 35.6 °F 28.6 °F 24.8 °F 65% 29.73 in 10.0 mi West 9.2 mph - N/A   Overcast
6:47 PM 35.6 °F 26.6 °F 24.8 °F 65% 29.74 in 10.0 mi West 13.8 mph - N/A   Overcast
6:53 PM 35.6 °F 26.2 °F 24.8 °F 65% 29.74 in 10.0 mi West 15.0 mph - N/A   Overcast
6:55 PM 34.9 °F 26.2 °F 24.4 °F 66% 29.74 in 10.0 mi West 12.7 mph - 0.00 in   Overcast
7:13 PM 33.8 °F 24.8 °F 24.8 °F 70% 29.75 in 10.0 mi West 12.7 mph - N/A   Mostly Cloudy
7:55 PM 33.3 °F 22.8 °F 21.9 °F 63% 29.76 in 10.0 mi West 16.1 mph 25.3 mph 0.00 in   Partly Cloudy
8:55 PM 32.0 °F 21.6 °F 19.0 °F 59% 29.78 in 10.0 mi WNW 15.0 mph - N/A   Partly Cloudy
9:55 PM 30.6 °F 23.1 °F 19.9 °F 65% 29.80 in 10.0 mi NW 8.1 mph - N/A   Partly Cloudy
10:55 PM 31.5 °F 19.8 °F 20.5 °F 64% 29.79 in 10.0 mi WNW 18.4 mph 27.6 mph N/A   Mostly Cloudy
11:55 PM 30.9 °F 19.4 °F 21.0 °F 67% 29.80 in 10.0 mi WNW 17.3 mph 21.9 mph N/A   Scattered Clouds